Time,TemperatureF,DewpointF,PressureIn,WindDirection,WindDirectionDegrees,WindSpeedMPH,WindSpeedGustMPH,Humidity,HourlyPrecipIn,Conditions,Clouds,dailyrainin,SoftwareType,DateUTC
2013-04-05 00:02:00,54.7,54.7,29.73,SE,141,2.0,2.0,100,0.00,,,0.00,Wunderground v.1.15,2013-04-05 07:02:00,
2013-04-05 00:07:00,54.5,54.5,29.73,SW,223,1.0,2.0,100,0.00,,,0.00,Wunderground v.1.15,2013-04-05 07:07:00,
2013-04-05 00:17:00,54.2,54.2,29.73,SE,140,4.0,4.0,100,0.00,,,0.00,Wunderground v.1.15,2013-04-05 07:17:00,
2013-04-05 00:27:00,54.1,54.1,29.73,SW,216,2.0,10.0,100,0.00,,,0.00,Wunderground v.1.15,2013-04-05 07:27:00,
2013-04-05 00:42:00,54.1,54.1,29.73,SSE,148,1.0,1.0,100,0.00,,,0.00,Wunderground v.1.15,2013-04-05 07:42:00,
2013-04-05 00:52:00,54.1,54.1,29.73,SW,223,2.0,2.0,100,0.00,,,0.00,Wunderground v.1.15,2013-04-05 07:52:00,
2013-04-05 00:57:00,54.1,54.1,29.73,South,189,2.0,2.0,100,0.00,,,0.00,Wunderground v.1.15,2013-04-05 07:57:00,
2013-04-05 01:07:00,53.6,53.6,29.73,SSE,161,2.0,2.0,100,0.00,,,0.00,Wunderground v.1.15,2013-04-05 08:07:00,
2013-04-05 01:17:00,53.5,53.5,29.73,SW,220,1.0,2.0,100,0.00,,,0.00,Wunderground v.1.15,2013-04-05 08:17:00,
2013-04-05 01:27:00,53.2,53.2,29.73,SW,226,1.0,1.0,100,0.00,,,0.00,Wunderground v.1.15,2013-04-05 08:27:00,
2013-04-05 01:37:00,52.9,52.9,29.73,SSE,152,3.0,3.0,100,0.00,,,0.00,Wunderground v.1.15,2013-04-05 08:37:00,
2013-04-05 01:42:00,52.8,52.8,29.73,SSW,202,2.0,2.0,100,0.00,,,0.00,Wunderground v.1.15,2013-04-05 08:42:00,
2013-04-05 01:52:00,52.6,52.6,29.73,South,186,1.0,1.0,100,0.00,,,0.00,Wunderground v.1.15,2013-04-05 08:52:00,
2013-04-05 02:02:00,52.5,52.5,29.74,SE,136,1.0,1.0,100,0.00,,,0.00,Wunderground v.1.15,2013-04-05 09:02:00,
2013-04-05 02:12:00,52.5,52.5,29.74,SSW,195,0.0,0.0,100,0.00,,,0.00,Wunderground v.1.15,2013-04-05 09:12:00,
2013-04-05 02:17:00,52.5,52.5,29.74,SE,144,1.0,1.0,100,0.00,,,0.00,Wunderground v.1.15,2013-04-05 09:17:00,
2013-04-05 02:27:00,52.3,52.3,29.74,SE,126,0.0,0.0,100,0.00,,,0.00,Wunderground v.1.15,2013-04-05 09:27:00,
2013-04-05 02:32:00,52.2,52.2,29.74,South,178,0.0,1.0,100,0.00,,,0.00,Wunderground v.1.15,2013-04-05 09:32:00,
2013-04-05 02:42:00,52.2,52.2,29.74,South,174,0.0,2.0,100,0.00,,,0.00,Wunderground v.1.15,2013-04-05 09:42:00,
2013-04-05 02:52:00,52.0,52.0,29.74,ESE,120,1.0,2.0,100,0.00,,,0.00,Wunderground v.1.15,2013-04-05 09:52:00,
2013-04-05 02:57:00,52.0,52.0,29.74,SSE,167,1.0,2.0,100,0.00,,,0.00,Wunderground v.1.15,2013-04-05 09:57:00,
2013-04-05 03:07:00,52.0,52.0,29.74,SSW,193,1.0,1.0,100,0.00,,,0.00,Wunderground v.1.15,2013-04-05 10:07:00,
2013-04-05 03:22:00,52.0,52.0,29.74,SSW,199,1.0,1.0,100,0.00,,,0.00,Wunderground v.1.15,2013-04-05 10:22:00,
2013-04-05 03:32:00,52.0,52.0,29.74,SE,137,1.0,7.0,100,0.00,,,0.00,Wunderground v.1.15,2013-04-05 10:32:00,
2013-04-05 03:42:00,52.2,52.2,29.74,SW,217,1.0,1.0,100,0.00,,,0.00,Wunderground v.1.15,2013-04-05 10:42:00,
2013-04-05 03:52:00,52.2,52.2,29.74,SSE,162,2.0,2.0,100,0.00,,,0.00,Wunderground v.1.15,2013-04-05 10:52:00,
2013-04-05 04:02:00,52.3,52.3,29.75,ESE,121,2.0,12.0,100,0.00,,,0.00,Wunderground v.1.15,2013-04-05 11:02:00,
2013-04-05 04:07:00,52.3,52.3,29.75,SSE,158,3.0,12.0,100,0.00,,,0.00,Wunderground v.1.15,2013-04-05 11:07:00,
2013-04-05 04:17:00,52.3,52.3,29.76,NW,305,2.0,2.0,100,0.00,,,0.00,Wunderground v.1.15,2013-04-05 11:17:00,
2013-04-05 04:27:00,52.5,52.5,29.76,SW,227,2.0,2.0,100,0.00,,,0.00,Wunderground v.1.15,2013-04-05 11:27:00,
2013-04-05 04:32:00,52.5,52.5,29.76,SSW,205,2.0,2.0,100,0.00,,,0.00,Wunderground v.1.15,2013-04-05 11:32:00,
2013-04-05 04:42:00,52.5,52.5,29.76,South,188,1.0,1.0,100,0.00,,,0.00,Wunderground v.1.15,2013-04-05 11:42:00,
2013-04-05 04:47:00,52.5,52.5,29.77,SSE,152,1.0,1.0,100,0.00,,,0.00,Wunderground v.1.15,2013-04-05 11:47:00,
2013-04-05 04:57:00,52.5,52.5,29.77,SSE,154,0.0,1.0,100,0.00,,,0.00,Wunderground v.1.15,2013-04-05 11:57:00,
2013-04-05 05:07:00,52.5,52.5,29.77,SSE,158,0.0,19.0,100,0.00,,,0.00,Wunderground v.1.15,2013-04-05 12:07:00,
2013-04-05 05:17:00,52.5,52.5,29.78,South,181,1.0,1.0,100,0.00,,,0.00,Wunderground v.1.15,2013-04-05 12:17:00,
2013-04-05 05:27:00,52.6,52.6,29.78,SSE,158,1.0,8.0,100,0.00,,,0.00,Wunderground v.1.15,2013-04-05 12:27:00,
2013-04-05 05:32:00,52.6,52.6,29.79,SSE,148,1.0,5.0,100,0.00,,,0.00,Wunderground v.1.15,2013-04-05 12:32:00,
2013-04-05 05:42:00,52.6,52.6,29.79,SSE,161,0.0,0.0,100,0.00,,,0.00,Wunderground v.1.15,2013-04-05 12:42:00,
2013-04-05 05:52:00,52.8,52.8,29.79,South,184,1.0,2.0,100,0.00,,,0.00,Wunderground v.1.15,2013-04-05 12:52:00,
2013-04-05 05:57:00,52.9,52.9,29.79,SSW,202,1.0,2.0,100,0.00,,,0.00,Wunderground v.1.15,2013-04-05 12:57:00,
2013-04-05 06:07:00,52.9,52.9,29.79,SSE,165,1.0,1.0,100,0.00,,,0.00,Wunderground v.1.15,2013-04-05 13:07:00,
2013-04-05 06:12:00,52.9,52.9,29.79,WSW,248,1.0,2.0,100,0.00,,,0.00,Wunderground v.1.15,2013-04-05 13:12:00,
2013-04-05 06:22:00,53.1,53.1,29.80,SSW,195,1.0,1.0,100,0.00,,,0.00,Wunderground v.1.15,2013-04-05 13:22:00,
2013-04-05 06:32:00,53.1,53.1,29.80,South,182,1.0,2.0,100,0.00,,,0.00,Wunderground v.1.15,2013-04-05 13:32:00,
2013-04-05 06:37:00,53.1,53.1,29.80,SSE,160,1.0,2.0,100,0.00,,,0.00,Wunderground v.1.15,2013-04-05 13:37:00,
2013-04-05 06:47:00,53.1,53.1,29.80,SE,143,1.0,1.0,100,0.00,,,0.00,Wunderground v.1.15,2013-04-05 13:47:00,
2013-04-05 06:57:00,53.1,53.1,29.80,SW,215,1.0,1.0,100,0.00,,,0.00,Wunderground v.1.15,2013-04-05 13:57:00,
2013-04-05 07:02:00,53.1,53.1,29.80,SE,138,2.0,12.0,100,0.00,,,0.00,Wunderground v.1.15,2013-04-05 14:02:00,
2013-04-05 07:12:00,53.1,53.1,29.80,South,169,3.0,3.0,100,0.00,,,0.00,Wunderground v.1.15,2013-04-05 14:12:00,
2013-04-05 07:22:00,53.1,53.1,29.80,WNW,291,2.0,5.0,100,0.00,,,0.00,Wunderground v.1.15,2013-04-05 14:22:00,
2013-04-05 07:37:00,53.1,53.1,29.81,South,172,1.0,3.0,100,0.00,,,0.00,Wunderground v.1.15,2013-04-05 14:37:00,
2013-04-05 07:47:00,53.2,53.2,29.81,SW,215,2.0,5.0,100,0.00,,,0.00,Wunderground v.1.15,2013-04-05 14:47:00,
2013-04-05 07:52:00,53.3,53.3,29.81,SSE,155,2.0,2.0,100,0.00,,,0.00,Wunderground v.1.15,2013-04-05 14:52:00,
2013-04-05 08:02:00,53.6,53.6,29.81,SSE,168,1.0,8.0,100,0.00,,,0.00,Wunderground v.1.15,2013-04-05 15:02:00,
2013-04-05 08:07:00,53.6,53.6,29.81,SSE,162,1.0,8.0,100,0.00,,,0.00,Wunderground v.1.15,2013-04-05 15:07:00,
2013-04-05 08:12:00,53.6,53.6,29.81,SSW,203,1.0,3.0,100,0.00,,,0.00,Wunderground v.1.15,2013-04-05 15:12:00,
2013-04-05 08:22:00,53.6,53.6,29.82,South,182,2.0,7.0,100,0.00,,,0.00,Wunderground v.1.15,2013-04-05 15:22:00,
2013-04-05 08:32:00,53.6,53.6,29.82,WSW,246,3.0,3.0,100,0.00,,,0.00,Wunderground v.1.15,2013-04-05 15:32:00,
2013-04-05 08:42:00,54.1,54.1,29.82,SW,215,2.0,2.0,100,0.00,,,0.00,Wunderground v.1.15,2013-04-05 15:42:00,
2013-04-05 08:47:00,54.2,54.2,29.82,SSE,157,3.0,3.0,100,0.00,,,0.00,Wunderground v.1.15,2013-04-05 15:47:00,
2013-04-05 08:57:00,54.2,54.2,29.82,South,175,2.0,3.0,100,0.00,,,0.00,Wunderground v.1.15,2013-04-05 15:57:00,
2013-04-05 09:02:00,54.4,54.4,29.82,South,172,2.0,2.0,100,0.00,,,0.00,Wunderground v.1.15,2013-04-05 16:02:00,
2013-04-05 09:07:00,54.4,54.4,29.82,SE,128,2.0,5.0,100,0.00,,,0.00,Wunderground v.1.15,2013-04-05 16:07:00,
2013-04-05 09:17:00,54.5,54.5,29.82,South,181,3.0,3.0,100,0.00,,,0.00,Wunderground v.1.15,2013-04-05 16:17:00,
2013-04-05 09:22:00,54.5,54.5,29.82,South,179,3.0,3.0,100,0.00,,,0.00,Wunderground v.1.15,2013-04-05 16:22:00,
2013-04-05 09:32:00,54.8,54.8,29.82,SSW,193,2.0,2.0,100,0.00,,,0.00,Wunderground v.1.15,2013-04-05 16:32:00,
2013-04-05 09:42:00,55.3,55.3,29.82,SSE,167,3.0,3.0,100,0.00,,,0.00,Wunderground v.1.15,2013-04-05 16:42:00,
2013-04-05 09:52:00,56.0,55.2,29.82,SSE,161,3.0,3.0,97,0.00,,,0.00,Wunderground v.1.15,2013-04-05 16:52:00,
2013-04-05 09:57:00,56.2,55.1,29.82,SSE,155,3.0,3.0,96,0.00,,,0.00,Wunderground v.1.15,2013-04-05 16:57:00,
2013-04-05 10:02:00,56.2,55.1,29.82,SSW,193,2.0,12.0,96,0.00,,,0.00,Wunderground v.1.15,2013-04-05 17:02:00,
2013-04-05 10:12:00,56.6,54.0,29.82,SSE,152,2.0,10.0,91,0.00,,,0.00,Wunderground v.1.15,2013-04-05 17:12:00,
2013-04-05 10:27:00,57.8,53.0,29.82,ESE,110,2.0,2.0,84,0.00,,,0.00,Wunderground v.1.15,2013-04-05 17:27:00,
2013-04-05 10:32:00,57.8,53.3,29.82,SSE,154,3.0,11.0,85,0.00,,,0.00,Wunderground v.1.15,2013-04-05 17:32:00,
2013-04-05 10:42:00,57.8,53.3,29.82,SSE,155,4.0,4.0,85,0.00,,,0.00,Wunderground v.1.15,2013-04-05 17:42:00,
2013-04-05 10:52:00,58.1,52.6,29.83,SSE,155,2.0,2.0,82,0.00,,,0.00,Wunderground v.1.15,2013-04-05 17:52:00,
2013-04-05 11:02:00,58.4,51.9,29.83,SSE,158,2.0,2.0,79,0.00,,,0.00,Wunderground v.1.15,2013-04-05 18:02:00,
2013-04-05 11:07:00,58.1,51.6,29.83,SSW,202,2.0,2.0,79,0.00,,,0.00,Wunderground v.1.15,2013-04-05 18:07:00,
2013-04-05 11:17:00,57.5,52.0,29.83,SW,223,2.0,4.0,82,0.00,,,0.00,Wunderground v.1.15,2013-04-05 18:17:00,
2013-04-05 11:22:00,57.3,52.2,29.83,SSE,151,2.0,2.0,83,0.00,,,0.00,Wunderground v.1.15,2013-04-05 18:22:00,
2013-04-05 11:32:00,57.2,52.1,29.84,SSE,158,2.0,2.0,83,0.00,,,0.00,Wunderground v.1.15,2013-04-05 18:32:00,
2013-04-05 11:42:00,57.3,52.5,29.84,South,178,1.0,5.0,84,0.00,,,0.00,Wunderground v.1.15,2013-04-05 18:42:00,
2013-04-05 11:52:00,56.7,52.6,29.84,SSW,196,2.0,2.0,86,0.00,,,0.00,Wunderground v.1.15,2013-04-05 18:52:00,
2013-04-05 11:57:00,56.3,56.3,29.84,SSW,213,1.0,2.0,100,0.00,,,0.00,Wunderground v.1.15,2013-04-05 18:57:00,
2013-04-05 12:07:00,56.5,54.5,29.83,SSE,164,0.0,13.0,93,0.00,,,0.00,Wunderground v.1.15,2013-04-05 19:07:00,
2013-04-05 12:17:00,56.9,53.4,29.84,South,172,1.0,1.0,88,0.00,,,0.00,Wunderground v.1.15,2013-04-05 19:17:00,
2013-04-05 12:22:00,57.2,55.2,29.84,SW,236,0.0,0.0,93,0.00,,,0.00,Wunderground v.1.15,2013-04-05 19:22:00,
2013-04-05 12:32:00,57.5,56.9,29.83,WSW,254,0.0,0.0,98,0.00,,,0.00,Wunderground v.1.15,2013-04-05 19:32:00,
2013-04-05 12:37:00,57.2,51.8,29.83,SSW,192,1.0,3.0,82,0.00,,,0.00,Wunderground v.1.15,2013-04-05 19:37:00,
2013-04-05 12:47:00,57.0,52.5,29.84,SSE,162,2.0,10.0,85,0.00,,,0.00,Wunderground v.1.15,2013-04-05 19:47:00,
2013-04-05 12:52:00,56.7,52.2,29.84,SSE,148,2.0,3.0,85,0.00,,,0.00,Wunderground v.1.15,2013-04-05 19:52:00,
2013-04-05 13:02:00,56.6,53.1,29.83,SSE,164,2.0,5.0,88,0.00,,,0.00,Wunderground v.1.15,2013-04-05 20:02:00,
2013-04-05 13:07:00,56.6,51.8,29.83,South,176,2.0,5.0,84,0.00,,,0.00,Wunderground v.1.15,2013-04-05 20:07:00,
2013-04-05 13:17:00,56.9,52.1,29.84,SSW,192,2.0,2.0,84,0.00,,,0.00,Wunderground v.1.15,2013-04-05 20:17:00,
2013-04-05 13:22:00,57.0,51.2,29.84,SSE,157,1.0,1.0,81,0.00,,,0.00,Wunderground v.1.15,2013-04-05 20:22:00,
2013-04-05 13:32:00,57.3,50.8,29.84,SW,220,1.0,6.0,79,0.00,,,0.00,Wunderground v.1.15,2013-04-05 20:32:00,
2013-04-05 13:37:00,57.2,50.4,29.84,South,169,2.0,6.0,78,0.00,,,0.00,Wunderground v.1.15,2013-04-05 20:37:00,
2013-04-05 13:47:00,57.5,47.4,29.84,South,175,3.0,4.0,69,0.00,,,0.00,Wunderground v.1.15,2013-04-05 20:47:00,
2013-04-05 13:57:00,57.3,46.4,29.84,SSE,160,4.0,7.0,67,0.00,,,0.00,Wunderground v.1.15,2013-04-05 20:57:00,
2013-04-05 14:02:00,57.2,47.1,29.84,SSE,168,5.0,5.0,69,0.00,,,0.00,Wunderground v.1.15,2013-04-05 21:02:00,
2013-04-05 14:12:00,57.2,49.7,29.84,South,171,2.0,2.0,76,0.00,,,0.00,Wunderground v.1.15,2013-04-05 21:12:00,
2013-04-05 14:22:00,57.0,48.4,29.83,South,179,1.0,1.0,73,0.00,,,0.00,Wunderground v.1.15,2013-04-05 21:22:00,
2013-04-05 14:32:00,56.9,48.3,29.83,SSE,152,2.0,2.0,73,0.00,,,0.00,Wunderground v.1.15,2013-04-05 21:32:00,
2013-04-05 14:42:00,56.9,48.7,29.83,ESE,121,1.0,6.0,74,0.00,,,0.00,Wunderground v.1.15,2013-04-05 21:42:00,
2013-04-05 14:52:00,56.9,49.4,29.83,SSE,152,1.0,2.0,76,0.00,,,0.00,Wunderground v.1.15,2013-04-05 21:52:00,
2013-04-05 15:02:00,56.7,49.2,29.83,SSE,164,1.0,1.0,76,0.00,,,0.00,Wunderground v.1.15,2013-04-05 22:02:00,
2013-04-05 15:07:00,56.6,49.5,29.83,SSE,161,1.0,1.0,77,0.00,,,0.00,Wunderground v.1.15,2013-04-05 22:07:00,
2013-04-05 15:17:00,56.5,50.4,29.83,SSW,193,1.0,2.0,80,0.00,,,0.00,Wunderground v.1.15,2013-04-05 22:17:00,
2013-04-05 15:27:00,56.2,51.4,29.83,SSE,168,1.0,1.0,84,0.00,,,0.00,Wunderground v.1.15,2013-04-05 22:27:00,
2013-04-05 15:37:00,55.9,53.9,29.83,South,169,1.0,1.0,93,0.00,,,0.00,Wunderground v.1.15,2013-04-05 22:37:00,
2013-04-05 15:47:00,55.4,55.1,29.83,South,185,1.0,1.0,99,0.00,,,0.00,Wunderground v.1.15,2013-04-05 22:47:00,
2013-04-05 15:52:00,55.3,55.3,29.83,SSE,161,2.0,5.0,100,0.00,,,0.00,Wunderground v.1.15,2013-04-05 22:52:00,
2013-04-05 16:02:00,55.0,55.0,29.83,South,169,1.0,1.0,100,0.00,,,0.00,Wunderground v.1.15,2013-04-05 23:02:00,
2013-04-05 16:07:00,54.8,54.8,29.83,SSE,168,0.0,1.0,100,0.00,,,0.00,Wunderground v.1.15,2013-04-05 23:07:00,
2013-04-05 16:17:00,54.4,54.4,29.83,SW,216,1.0,1.0,100,0.00,,,0.00,Wunderground v.1.15,2013-04-05 23:17:00,
2013-04-05 16:32:00,54.2,54.2,29.82,SE,141,2.0,4.0,100,0.00,,,0.00,Wunderground v.1.15,2013-04-05 23:32:00,
2013-04-05 16:42:00,54.1,54.1,29.82,South,175,2.0,5.0,100,0.00,,,0.00,Wunderground v.1.15,2013-04-05 23:42:00,
2013-04-05 16:47:00,53.9,53.9,29.82,South,181,3.0,5.0,100,0.00,,,0.00,Wunderground v.1.15,2013-04-05 23:47:00,
2013-04-05 16:57:00,53.8,53.8,29.82,SE,124,2.0,3.0,100,0.00,,,0.00,Wunderground v.1.15,2013-04-05 23:57:00,
2013-04-05 17:07:00,53.6,53.6,29.82,SSE,148,3.0,5.0,100,0.00,,,0.00,Wunderground v.1.15,2013-04-06 00:07:00,
2013-04-05 17:12:00,53.5,53.5,29.82,SE,128,3.0,10.0,100,0.00,,,0.00,Wunderground v.1.15,2013-04-06 00:12:00,
2013-04-05 17:22:00,53.3,53.3,29.81,SSE,168,3.0,3.0,100,0.00,,,0.00,Wunderground v.1.15,2013-04-06 00:22:00,
2013-04-05 17:32:00,53.2,53.2,29.81,South,174,2.0,2.0,100,0.00,,,0.00,Wunderground v.1.15,2013-04-06 00:32:00,
2013-04-05 17:42:00,52.9,52.9,29.81,South,181,2.0,2.0,100,0.00,,,0.00,Wunderground v.1.15,2013-04-06 00:42:00,
2013-04-05 17:52:00,52.6,52.6,29.81,SSW,200,1.0,2.0,100,0.00,,,0.00,Wunderground v.1.15,2013-04-06 00:52:00,
2013-04-05 18:02:00,52.5,52.5,29.81,SSE,151,2.0,2.0,100,0.00,,,0.00,Wunderground v.1.15,2013-04-06 01:02:00,
2013-04-05 18:07:00,52.5,52.5,29.81,SSW,210,2.0,7.0,100,0.00,,,0.00,Wunderground v.1.15,2013-04-06 01:07:00,
2013-04-05 18:17:00,52.0,52.0,29.81,SSE,165,3.0,3.0,100,0.00,,,0.00,Wunderground v.1.15,2013-04-06 01:17:00,
2013-04-05 18:22:00,51.7,51.7,29.81,South,172,2.0,2.0,100,0.00,,,0.00,Wunderground v.1.15,2013-04-06 01:22:00,
2013-04-05 18:32:00,51.6,51.6,29.81,SSE,157,1.0,1.0,100,0.00,,,0.00,Wunderground v.1.15,2013-04-06 01:32:00,
2013-04-05 18:42:00,52.0,52.0,29.81,SSE,158,1.0,1.0,100,0.00,,,0.00,Wunderground v.1.15,2013-04-06 01:42:00,
2013-04-05 18:47:00,52.2,52.2,29.80,SSE,168,1.0,1.0,100,0.00,,,0.00,Wunderground v.1.15,2013-04-06 01:47:00,
2013-04-05 18:57:00,52.0,52.0,29.80,SSE,152,1.0,1.0,100,0.00,,,0.00,Wunderground v.1.15,2013-04-06 01:57:00,
2013-04-05 19:07:00,52.0,52.0,29.80,SSW,196,1.0,1.0,100,0.00,,,0.00,Wunderground v.1.15,2013-04-06 02:07:00,
2013-04-05 19:17:00,52.2,52.2,29.79,South,188,1.0,1.0,100,0.00,,,0.00,Wunderground v.1.15,2013-04-06 02:17:00,
2013-04-05 19:27:00,52.2,52.2,29.79,SSE,151,1.0,5.0,100,0.00,,,0.00,Wunderground v.1.15,2013-04-06 02:27:00,
2013-04-05 19:37:00,52.2,52.2,29.79,South,174,1.0,5.0,100,0.00,,,0.00,Wunderground v.1.15,2013-04-06 02:37:00,
2013-04-05 19:47:00,52.0,52.0,29.78,SSE,160,0.0,1.0,100,0.00,,,0.00,Wunderground v.1.15,2013-04-06 02:47:00,
2013-04-05 19:57:00,51.9,51.9,29.78,SSE,165,1.0,1.0,100,0.00,,,0.00,Wunderground v.1.15,2013-04-06 02:57:00,
2013-04-05 20:02:00,51.7,51.7,29.77,SE,145,1.0,1.0,100,0.00,,,0.00,Wunderground v.1.15,2013-04-06 03:02:00,
2013-04-05 20:07:00,51.7,51.7,29.77,SSE,154,0.0,2.0,100,0.00,,,0.00,Wunderground v.1.15,2013-04-06 03:07:00,
2013-04-05 20:17:00,51.6,51.6,29.77,SSE,151,1.0,1.0,100,0.00,,,0.00,Wunderground v.1.15,2013-04-06 03:17:00,
2013-04-05 20:27:00,51.4,51.4,29.77,SSE,151,0.0,1.0,100,0.00,,,0.00,Wunderground v.1.15,2013-04-06 03:27:00,
2013-04-05 20:37:00,51.3,51.3,29.76,ESE,103,0.0,0.0,100,0.00,,,0.00,Wunderground v.1.15,2013-04-06 03:37:00,
2013-04-05 20:47:00,51.1,51.1,29.76,SE,126,0.0,0.0,100,0.00,,,0.00,Wunderground v.1.15,2013-04-06 03:47:00,
2013-04-05 20:52:00,51.1,51.1,29.76,SE,131,0.0,0.0,100,0.00,,,0.00,Wunderground v.1.15,2013-04-06 03:52:00,
2013-04-05 21:07:00,51.1,51.1,29.76,SE,134,0.0,5.0,100,0.00,,,0.00,Wunderground v.1.15,2013-04-06 04:07:00,
2013-04-05 21:12:00,51.3,51.3,29.76,SE,144,1.0,1.0,100,0.00,,,0.00,Wunderground v.1.15,2013-04-06 04:12:00,
2013-04-05 21:17:00,51.3,51.3,29.76,SSE,164,1.0,1.0,100,0.00,,,0.00,Wunderground v.1.15,2013-04-06 04:17:00,
2013-04-05 21:27:00,51.6,51.6,29.76,SSW,206,2.0,2.0,100,0.00,,,0.00,Wunderground v.1.15,2013-04-06 04:27:00,
2013-04-05 21:37:00,51.6,51.6,29.76,SE,143,1.0,2.0,100,0.00,,,0.00,Wunderground v.1.15,2013-04-06 04:37:00,
2013-04-05 21:42:00,51.6,51.6,29.76,SE,136,1.0,1.0,100,0.00,,,0.00,Wunderground v.1.15,2013-04-06 04:42:00,
2013-04-05 21:52:00,51.4,51.4,29.75,SSE,165,1.0,1.0,100,0.00,,,0.00,Wunderground v.1.15,2013-04-06 04:52:00,
2013-04-05 22:02:00,51.4,51.4,29.75,SSE,158,1.0,7.0,100,0.00,,,0.00,Wunderground v.1.15,2013-04-06 05:02:00,
2013-04-05 22:12:00,51.6,51.6,29.75,SE,143,2.0,2.0,100,0.00,,,0.00,Wunderground v.1.15,2013-04-06 05:12:00,
2013-04-05 22:17:00,51.7,51.7,29.73,WSW,258,1.0,2.0,100,0.00,,,0.00,Wunderground v.1.15,2013-04-06 05:17:00,
2013-04-05 22:22:00,51.9,51.9,29.73,SSE,161,2.0,8.0,100,0.00,,,0.00,Wunderground v.1.15,2013-04-06 05:22:00,
2013-04-05 22:32:00,51.7,51.7,29.72,SSE,162,1.0,1.0,100,0.00,,,0.00,Wunderground v.1.15,2013-04-06 05:32:00,
2013-04-05 22:37:00,51.7,51.7,29.72,SSE,155,1.0,1.0,100,0.00,,,0.00,Wunderground v.1.15,2013-04-06 05:37:00,
2013-04-05 22:47:00,51.7,51.7,29.71,South,188,1.0,2.0,100,0.00,,,0.00,Wunderground v.1.15,2013-04-06 05:47:00,
2013-04-05 22:52:00,51.7,51.7,29.71,SE,143,1.0,3.0,100,0.00,,,0.00,Wunderground v.1.15,2013-04-06 05:52:00,
2013-04-05 23:02:00,51.7,51.7,29.70,SE,136,1.0,11.0,100,0.00,,,0.00,Wunderground v.1.15,2013-04-06 06:02:00,
2013-04-05 23:07:00,51.9,51.9,29.70,SW,224,2.0,11.0,100,0.00,,,0.00,Wunderground v.1.15,2013-04-06 06:07:00,
2013-04-05 23:17:00,52.0,52.0,29.69,WSW,248,1.0,2.0,100,0.00,,,0.00,Wunderground v.1.15,2013-04-06 06:17:00,
2013-04-05 23:22:00,52.0,52.0,29.69,SSE,162,1.0,1.0,100,0.00,,,0.00,Wunderground v.1.15,2013-04-06 06:22:00,
2013-04-05 23:32:00,52.0,52.0,29.70,SE,134,2.0,5.0,100,0.00,,,0.00,Wunderground v.1.15,2013-04-06 06:32:00,
2013-04-05 23:42:00,51.7,51.7,29.70,SE,140,2.0,5.0,100,0.00,,,0.00,Wunderground v.1.15,2013-04-06 06:42:00,
2013-04-05 23:52:00,51.6,51.6,29.69,South,175,1.0,1.0,100,0.00,,,0.00,Wunderground v.1.15,2013-04-06 06:52:00,